Waarnemingen

Advertentie
Mijn weer
Westdorpe aws, Nederland (6319): temperatuur & dauwpunt: 15.01.2017 18:00:00 - 21.01.2017 18:00:00 (CET)Westdorpe aws, Nederland (6319): temperatuur 5cm: 15.01.2017 18:00:00 - 21.01.2017 18:00:00 (CET)Westdorpe aws, Nederland (6319): windsnelheid & windstoten: 15.01.2017 18:00:00 - 21.01.2017 18:00:00 (CET)Westdorpe aws, Nederland (6319): windrichting: 15.01.2017 18:00:00 - 21.01.2017 18:00:00 (CET)Westdorpe aws, Nederland (6319): luchtdruk: 15.01.2017 18:00:00 - 21.01.2017 18:00:00 (CET)Westdorpe aws, Nederland (6319): zicht: 15.01.2017 18:00:00 - 21.01.2017 18:00:00 (CET)Westdorpe aws, Nederland (6319): neerslag: 15.01.2017 18:00:00 - 21.01.2017 18:00:00 (CET)
Datum & Tijd tt [°C] td [°C] tt 5cm [°C] ff [km/u] ff [kn] fx [km/u] fx [kn] dd ppp [hPa] vv [km] rr [mm]
21.01.2017 18:00:00 -0,4 -3,4 -4,4 2 1 - - OZO 1027,5 24 -
21.01.2017 17:00:00 2,1 -4,6 -0,8 4 2 7 4 OZO 1027,4 28 0,0
21.01.2017 16:00:00 3,4 -5,4 2,7 7 4 11 6 ZO 1027,5 31 0,0
21.01.2017 15:00:00 3,7 -4,0 4,6 7 4 14 8 ZO 1027,6 31 0,0
21.01.2017 14:00:00 3,2 -4,1 4,8 7 4 14 8 O 1028,2 33 0,0
21.01.2017 13:00:00 2,1 -3,5 4,5 7 4 11 6 O 1028,9 24 0,0
21.01.2017 12:00:00 1,2 -3,4 3,3 7 4 14 8 O 1029,7 20 0,0
21.01.2017 11:00:00 -0,1 -4,1 1,1 7 4 11 6 O 1030,0 18 0,0
21.01.2017 10:00:00 -1,9 -4,1 -3,2 4 2 7 4 O 1030,1 16 0,0
21.01.2017 09:00:00 -3,9 -5,1 -7,2 0 0 4 2 N 1029,9 14 0,0
21.01.2017 08:00:00 -3,7 -5,0 -6,5 0 0 11 6 N 1029,8 17 0,0
21.01.2017 07:00:00 -3,3 -5,2 -4,0 11 6 14 8 NO 1030,1 17 0,0
21.01.2017 06:00:00 -3,3 -5,0 -6,7 7 4 7 4 NO 1030,5 17 0,0
21.01.2017 05:00:00 -2,6 -4,8 -6,7 4 2 7 4 ONO 1030,6 23 0,0
21.01.2017 04:00:00 -2,5 -4,5 -5,9 7 4 11 6 O 1031,0 21 0,0
21.01.2017 03:00:00 -2,1 -4,2 -3,2 11 6 11 6 NO 1031,3 20 0,0
21.01.2017 02:00:00 -1,9 -4,0 -2,9 7 4 11 6 NO 1031,4 19 0,0
21.01.2017 01:00:00 -0,4 -4,2 -2,2 11 6 18 10 ONO 1031,7 23 0,0
21.01.2017 00:00:00 -0,3 -3,9 -2,2 11 6 18 10 ONO 1032,0 23 0,0
20.01.2017 23:00:00 -1,0 -3,4 -2,4 11 6 14 8 NO 1032,4 22 0,0
20.01.2017 22:00:00 -0,4 -3,3 -1,8 11 6 14 8 NO 1032,5 25 0,0
20.01.2017 21:00:00 0,2 -3,3 -1,1 11 6 14 8 ONO 1032,6 29 0,0
20.01.2017 20:00:00 0,6 -3,3 -0,8 11 6 14 8 NO 1032,6 40 0,0
20.01.2017 19:00:00 1,3 -3,5 0,0 14 8 18 10 NO 1032,6 48 0,0
20.01.2017 18:00:00 2,2 -4,2 0,3 14 8 18 10 ONO 1032,5 49 0,0
20.01.2017 17:00:00 2,5 -3,5 1,3 11 6 18 10 ONO 1032,5 43 0,0
20.01.2017 16:00:00 3,7 -2,9 3,3 14 8 22 12 NO 1032,6 34 0,0
20.01.2017 15:00:00 3,8 -2,2 3,8 14 8 22 12 NO 1032,7 27 0,0
20.01.2017 14:00:00 3,0 -2,2 3,4 18 10 22 12 NO 1033,2 22 0,0
20.01.2017 13:00:00 2,0 -3,2 2,4 14 8 18 10 NO 1033,9 20 0,0
20.01.2017 12:00:00 1,2 -3,9 1,7 11 6 14 8 ONO 1034,3 22 0,0
20.01.2017 11:00:00 -0,5 -4,3 -0,6 11 6 14 8 NO 1034,9 15 0,0
20.01.2017 10:00:00 -2,0 -4,9 -2,7 11 6 14 8 NO 1034,9 15 0,0
20.01.2017 09:00:00 -3,6 -5,7 -5,2 11 6 14 8 NO 1034,7 11 0,0
20.01.2017 08:00:00 -4,1 -5,7 -7,1 7 4 11 6 NO 1034,8 9 0,0
20.01.2017 07:00:00 -4,3 -5,6 -6,4 11 6 11 6 NO 1034,9 8 0,0
20.01.2017 06:00:00 -4,1 -5,2 -7,9 7 4 7 4 NNO 1035,1 8 0,0
20.01.2017 05:00:00 -3,9 -5,2 -6,8 7 4 7 4 NO 1035,3 9 0,0
20.01.2017 04:00:00 -3,8 -5,0 -5,4 7 4 11 6 NNO 1035,3 8 0,0
20.01.2017 03:00:00 -3,1 -5,0 -6,8 4 2 7 4 NO 1035,4 11 0,0
20.01.2017 02:00:00 -2,6 -4,6 -4,0 7 4 14 8 NO 1035,5 11 0,0
20.01.2017 01:00:00 -2,8 -4,5 -3,9 11 6 14 8 NO 1035,8 10 0,0
20.01.2017 00:00:00 -2,5 -4,0 -6,2 7 4 7 4 NO 1036,3 10 0,0
19.01.2017 23:00:00 -1,9 -3,2 -3,9 7 4 11 6 ONO 1036,4 10 0,0
19.01.2017 22:00:00 -1,3 -3,3 -3,1 7 4 14 8 NO 1036,6 12 0,0
19.01.2017 21:00:00 0,1 -3,6 -1,5 11 6 14 8 ONO 1036,6 17 0,0
19.01.2017 20:00:00 0,0 -2,6 -1,4 11 6 14 8 NO 1036,6 12 0,0
19.01.2017 19:00:00 0,1 -2,2 -1,2 11 6 14 8 NO 1036,4 14 0,0
19.01.2017 18:00:00 0,5 -2,9 -0,2 14 8 18 10 NO 1036,3 23 0,0
19.01.2017 17:00:00 1,2 -2,8 0,4 14 8 18 10 NO 1036,2 24 0,0
19.01.2017 16:00:00 2,0 -2,3 1,7 14 8 18 10 NNO 1036,4 24 0,0
19.01.2017 15:00:00 2,6 -2,7 2,7 11 6 14 8 NO 1036,6 20 0,0
19.01.2017 14:00:00 2,3 -2,3 2,8 11 6 14 8 NO 1036,5 16 0,0
19.01.2017 13:00:00 1,7 -3,7 2,4 11 6 14 8 NO 1037,1 20 0,0
19.01.2017 12:00:00 0,2 -3,9 0,6 11 6 18 10 NO 1037,3 14 0,0
19.01.2017 11:00:00 -0,9 -4,7 -0,8 11 6 18 10 ONO 1037,9 13 0,0
19.01.2017 10:00:00 -1,9 -5,2 -2,6 11 6 14 8 ONO 1037,8 11 0,0
19.01.2017 09:00:00 -3,3 -5,3 -4,7 7 4 11 6 ONO 1037,7 8 0,0
19.01.2017 08:00:00 -3,9 -5,3 -5,0 7 4 11 6 NO 1037,5 6 0,0
19.01.2017 07:00:00 -3,7 -4,7 -4,8 7 4 11 6 NO 1037,4 4,7 0,0
19.01.2017 06:00:00 -3,3 -4,4 -4,0 11 6 11 6 NO 1037,2 4,1 0,0
19.01.2017 05:00:00 -2,8 -3,8 -3,4 7 4 11 6 NO 1037,6 3,6 0,0
19.01.2017 04:00:00 -3,0 -4,0 -4,1 7 4 11 6 NO 1037,9 3,0 0,0
19.01.2017 03:00:00 -3,0 -4,0 -4,1 7 4 14 8 ONO 1037,8 3,0 0,0
19.01.2017 02:00:00 -3,1 -4,1 -4,2 11 6 11 6 NNO 1037,9 2,8 0,0
19.01.2017 01:00:00 -3,2 -4,1 -4,5 7 4 7 4 ONO 1038,0 2,8 0,0
19.01.2017 00:00:00 -2,8 -3,9 -3,9 7 4 11 6 NNO 1038,3 3,0 0,0
18.01.2017 23:00:00 -2,3 -3,6 -3,2 7 4 11 6 NO 1038,5 3,2 0,0
18.01.2017 22:00:00 -1,9 -3,3 -2,4 7 4 11 6 NO 1038,3 3,7 0,0
18.01.2017 21:00:00 -1,9 -3,4 -2,8 7 4 14 8 ONO 1038,4 4,1 0,0
18.01.2017 20:00:00 -1,7 -3,4 -2,6 7 4 14 8 ONO 1038,4 4,2 0,0
18.01.2017 19:00:00 -1,3 -3,2 -1,9 14 8 18 10 NO 1038,3 4,7 0,0
18.01.2017 18:00:00 -1,2 -3,0 -1,8 14 8 18 10 NO 1038,6 4,5 0,0
18.01.2017 17:00:00 -1,1 -3,0 -1,6 14 8 18 10 ONO 1038,9 4,1 0,0
18.01.2017 16:00:00 -0,9 -2,7 -0,9 11 6 18 10 NO 1038,8 3,8 0,0
18.01.2017 15:00:00 -1,0 -3,2 -0,7 11 6 18 10 NO 1038,7 4,3 0,0
18.01.2017 14:00:00 -1,3 -3,4 -0,5 11 6 18 10 NO 1039,2 3,8 0,0
18.01.2017 13:00:00 -1,9 -3,7 -0,6 11 6 14 8 ONO 1039,5 3,3 0,0
18.01.2017 12:00:00 -2,3 -3,9 -1,2 11 6 14 8 O 1039,8 2,9 0,0
18.01.2017 11:00:00 -3,3 -4,6 -2,9 7 4 14 8 ONO 1040,2 2,6 0,0
18.01.2017 10:00:00 -3,5 -4,5 -3,3 7 4 14 8 O 1040,1 2,4 0,0
18.01.2017 09:00:00 -3,9 -4,7 -3,8 7 4 11 6 ONO 1039,7 2,3 0,0
18.01.2017 08:00:00 -4,2 -4,9 -4,2 7 4 11 6 ONO 1039,3 2,1 0,0
18.01.2017 07:00:00 -4,2 -4,7 -4,2 7 4 14 8 OZO 1038,9 1,9 0,0
18.01.2017 06:00:00 -4,0 -4,7 -4,0 11 6 14 8 O 1039,0 1,9 0,0
18.01.2017 05:00:00 -3,8 -4,7 -4,8 11 6 14 8 O 1039,4 2,2 0,0
18.01.2017 04:00:00 -3,6 -4,6 -7,6 4 2 7 4 NO 1039,0 2,5 0,0
18.01.2017 03:00:00 -3,7 -4,4 -6,9 4 2 7 4 O 1039,3 2,2 0,0
18.01.2017 02:00:00 -3,5 -4,2 -6,1 4 2 7 4 O 1039,3 1,9 0,0
18.01.2017 01:00:00 -3,0 -3,9 -4,5 7 4 7 4 NNO 1039,3 2,7 0,0
18.01.2017 00:00:00 -2,7 -3,7 -3,9 7 4 7 4 NNO 1039,2 2,8 0,0
17.01.2017 23:00:00 -2,4 -3,5 -4,1 4 2 7 4 ONO 1039,3 3,4 0,0
17.01.2017 22:00:00 -2,2 -3,4 -3,8 4 2 7 4 NO 1039,2 3,7 0,0
17.01.2017 21:00:00 -2,0 -3,7 -3,9 4 2 11 6 ONO 1039,0 4,5 0,0
17.01.2017 20:00:00 -1,6 -3,5 -3,0 7 4 11 6 ONO 1038,8 4,7 0,0
17.01.2017 19:00:00 -1,4 -3,0 -2,5 7 4 11 6 NO 1038,7 3,9 0,0
17.01.2017 18:00:00 -1,2 -2,9 -2,3 7 4 14 8 NNO 1038,5 4,2 0,0
17.01.2017 17:00:00 -0,9 -3,2 -1,6 11 6 11 6 NO 1038,1 4,5 0,0
17.01.2017 16:00:00 -0,5 -4,1 -0,8 7 4 11 6 NO 1037,8 7 0,0
17.01.2017 15:00:00 -0,8 -4,4 0,3 7 4 11 6 O 1037,9 6 0,0
17.01.2017 14:00:00 -1,3 -4,2 0,4 7 4 14 8 O 1038,1 5 0,0
17.01.2017 13:00:00 -2,2 -4,8 -1,4 7 4 18 10 OZO 1038,2 5 0,0
17.01.2017 12:00:00 -2,1 -4,4 -1,7 11 6 18 10 O 1038,4 4,5 0,0
17.01.2017 11:00:00 -2,6 -4,4 -2,1 7 4 18 10 O 1038,2 4,2 0,0
17.01.2017 10:00:00 -2,5 -4,2 -2,3 11 6 18 10 O 1037,7 3,9 0,0
17.01.2017 09:00:00 -2,5 -4,4 -2,5 11 6 14 8 O 1037,1 4,4 0,0
17.01.2017 08:00:00 -2,3 -4,3 -2,5 11 6 14 8 O 1036,4 4,3 0,0
17.01.2017 07:00:00 -2,0 -3,9 -2,2 7 4 - - ONO 1035,8 4,1 0,0
17.01.2017 06:00:00 -2,1 -3,7 -2,0 7 4 18 10 O 1035,5 3,5 0,0
17.01.2017 05:00:00 -1,9 -3,6 -2,0 11 6 14 8 O 1035,0 4,2 0,0
17.01.2017 04:00:00 -1,7 -3,8 -1,8 7 4 - - OZO 1034,5 6 0,0
17.01.2017 03:00:00 -1,6 -3,5 -1,7 11 6 22 12 O 1034,5 6 0,0
17.01.2017 02:00:00 -1,6 -3,7 -1,6 11 6 18 10 O 1033,9 7 0,0
17.01.2017 01:00:00 -1,1 -3,3 -1,3 11 6 18 10 O 1033,8 6 0,0
17.01.2017 00:00:00 -0,8 -3,3 -1,1 7 4 18 10 O 1033,5 7 0,0
16.01.2017 23:00:00 -0,7 -3,1 -1,0 11 6 18 10 O 1032,9 8 0,0
16.01.2017 22:00:00 -0,1 -2,3 -0,2 11 6 18 10 ONO 1032,4 8 0,0
16.01.2017 21:00:00 0,4 -1,6 0,2 11 6 18 10 ONO 1031,6 8 0,0
16.01.2017 20:00:00 0,5 -1,7 0,3 11 6 18 10 ONO 1030,9 11 0,0
16.01.2017 19:00:00 0,6 -0,6 -0,5 7 4 14 8 O 1030,2 6 0,0
16.01.2017 18:00:00 1,1 -0,4 0,3 11 6 18 10 O 1029,6 9 0,0
16.01.2017 17:00:00 2,1 -0,2 1,0 11 6 14 8 ONO 1029,0 10 0,0
16.01.2017 16:00:00 3,1 0,4 2,7 11 6 14 8 O 1028,4 14 0,0
16.01.2017 15:00:00 3,7 1,3 4,5 11 6 18 10 ONO 1028,0 13 0,0
16.01.2017 14:00:00 4,1 0,3 4,4 11 6 14 8 NO 1027,7 17 0,0
16.01.2017 13:00:00 3,6 1,6 4,0 4 2 7 4 NO 1027,6 12 0,0
16.01.2017 12:00:00 2,7 1,7 3,1 4 2 4 2 N 1027,7 8 0,0
16.01.2017 11:00:00 1,5 1,0 1,7 0 0 4 2 N 1027,2 3,0 0,0
16.01.2017 10:00:00 0,7 0,3 0,4 4 2 4 2 WZW 1027,0 1,9 0,0
16.01.2017 09:00:00 0,2 0,1 -0,3 4 2 7 4 WZW 1026,5 1,7 0,0
16.01.2017 08:00:00 0,1 -0,1 -1,0 4 2 7 4 W 1025,9 1,4 0,0
16.01.2017 07:00:00 0,3 0,0 -0,2 4 2 11 6 W 1025,5 1,7 0,0
16.01.2017 06:00:00 0,5 0,2 0,2 11 6 11 6 W 1025,4 2,4 0,0
16.01.2017 05:00:00 0,1 -0,1 -0,4 7 4 7 4 ZW 1024,9 1,3 0,0
16.01.2017 04:00:00 0,1 0,0 -0,1 7 4 11 6 WZW 1025,0 0,7 0,0
16.01.2017 03:00:00 0,2 -0,1 -1,2 7 4 7 4 ZW 1024,9 1,8 0,0
16.01.2017 02:00:00 0,0 -0,3 -1,2 4 2 7 4 W 1024,5 1,0 0,0
16.01.2017 01:00:00 -0,3 -0,4 -1,2 0 0 4 2 N 1024,4 0,2 0,0
16.01.2017 00:00:00 -0,5 -0,6 -1,7 0 0 4 2 N 1024,2 0,2 0,0
15.01.2017 23:00:00 -0,3 -0,5 -1,2 4 2 7 4 O 1024,0 0,2 0,0
15.01.2017 22:00:00 0,6 0,3 0,1 4 2 7 4 N 1023,6 0,9 0,0
15.01.2017 21:00:00 1,3 1,0 0,5 7 4 7 4 Z 1022,9 1,7 0,0
15.01.2017 20:00:00 1,5 1,1 0,7 4 2 7 4 ZZO 1022,8 2,4 0,0
15.01.2017 19:00:00 1,8 1,3 1,4 4 2 11 6 ZZO 1022,4 3,6 0,0
15.01.2017 18:00:00 2,0 1,4 1,9 7 4 11 6 ZZO 1022,2 4,8 0,0

tt = temperatuur
td = dauwpunt
tt 5cm = temperatuur 5cm
ff = windsnelheid
fx = windstoten
dd = windrichting
ppp = luchtdruk
vv = zicht
rr = neerslag

Weerstations in de omgeving